TimeCST,TemperatureF,Dew PointF,Humidity,Sea Level PressureIn,VisibilityMPH,Wind Direction,Wind SpeedMPH,Gust SpeedMPH,PrecipitationIn,Events,Conditions,WindDirDegrees,DateUTC
12:15 AM,24.8,17.6,74,30.15,10.0,ESE,10.4,-,N/A,,Overcast,110,2012-01-30 06:15:00
12:35 AM,24.8,17.6,74,30.14,10.0,ESE,11.5,-,N/A,,Overcast,120,2012-01-30 06:35:00
12:55 AM,24.8,19.4,80,30.12,10.0,ESE,10.4,-,N/A,,Overcast,110,2012-01-30 06:55:00
1:15 AM,26.6,19.4,74,30.11,10.0,SE,12.7,-,N/A,,Overcast,130,2012-01-30 07:15:00
1:35 AM,26.6,21.2,80,30.11,10.0,SE,11.5,-,N/A,,Overcast,130,2012-01-30 07:35:00
1:55 AM,26.6,19.4,74,30.10,10.0,SE,12.7,-,N/A,,Overcast,140,2012-01-30 07:55:00
2:15 AM,26.6,19.4,74,30.07,10.0,SE,13.8,-,N/A,,Overcast,140,2012-01-30 08:15:00
2:35 AM,26.6,19.4,74,30.07,10.0,SSE,15.0,-,N/A,,Mostly Cloudy,150,2012-01-30 08:35:00
2:55 AM,26.6,21.2,80,30.05,10.0,SSE,16.1,-,N/A,,Partly Cloudy,150,2012-01-30 08:55:00
3:15 AM,28.4,21.2,74,30.05,10.0,SE,16.1,-,N/A,,Mostly Cloudy,140,2012-01-30 09:15:00
3:35 AM,28.4,21.2,74,30.05,10.0,SE,16.1,-,N/A,,Overcast,130,2012-01-30 09:35:00
3:55 AM,28.4,21.2,74,30.02,10.0,SE,16.1,20.7,N/A,,Overcast,140,2012-01-30 09:55:00
4:15 AM,28.4,21.2,74,30.01,10.0,SSE,16.1,-,N/A,,Overcast,150,2012-01-30 10:15:00
4:35 AM,28.4,21.2,74,30.00,10.0,SSE,13.8,19.6,N/A,,Scattered Clouds,150,2012-01-30 10:35:00
4:55 AM,28.4,21.2,74,29.98,10.0,SSE,16.1,-,N/A,,Clear,150,2012-01-30 10:55:00
5:15 AM,28.4,21.2,74,29.97,10.0,SSE,13.8,-,N/A,,Scattered Clouds,150,2012-01-30 11:15:00
5:35 AM,28.4,21.2,74,29.96,10.0,SSE,13.8,-,N/A,,Scattered Clouds,150,2012-01-30 11:35:00
5:55 AM,30.2,21.2,69,29.96,10.0,SSE,11.5,-,N/A,,Partly Cloudy,150,2012-01-30 11:55:00
6:15 AM,30.2,21.2,69,29.95,10.0,SSE,11.5,-,N/A,,Mostly Cloudy,150,2012-01-30 12:15:00
6:35 AM,30.2,21.2,69,29.94,10.0,SSE,12.7,-,N/A,,Overcast,150,2012-01-30 12:35:00
6:55 AM,30.2,23.0,75,29.93,10.0,SSE,13.8,-,N/A,,Overcast,150,2012-01-30 12:55:00
7:15 AM,30.2,23.0,75,29.93,10.0,SSE,11.5,-,N/A,,Mostly Cloudy,150,2012-01-30 13:15:00
7:35 AM,30.2,23.0,75,29.92,10.0,SSE,10.4,-,N/A,,Partly Cloudy,160,2012-01-30 13:35:00
7:55 AM,30.2,23.0,75,29.92,10.0,SSE,12.7,-,N/A,,Partly Cloudy,160,2012-01-30 13:55:00
8:15 AM,32.0,24.8,75,29.92,10.0,South,11.5,-,N/A,,Mostly Cloudy,170,2012-01-30 14:15:00
8:35 AM,33.8,26.6,75,29.92,10.0,South,10.4,-,N/A,,Mostly Cloudy,170,2012-01-30 14:35:00
8:55 AM,33.8,26.6,75,29.90,10.0,South,13.8,-,N/A,,Mostly Cloudy,170,2012-01-30 14:55:00
9:15 AM,35.6,26.6,70,29.90,10.0,South,11.5,-,N/A,,Overcast,190,2012-01-30 15:15:00
9:35 AM,35.6,28.4,75,29.89,10.0,South,8.1,-,N/A,,Overcast,190,2012-01-30 15:35:00
10:15 AM,39.2,28.4,65,29.87,10.0,SSW,15.0,19.6,N/A,,Mostly Cloudy,200,2012-01-30 16:15:00
10:35 AM,41.0,30.2,65,29.86,10.0,SSW,11.5,-,N/A,,Scattered Clouds,200,2012-01-30 16:35:00
10:55 AM,41.0,30.2,65,29.86,10.0,SSW,11.5,-,N/A,,Mostly Cloudy,210,2012-01-30 16:55:00
11:15 AM,44.6,32.0,61,29.86,10.0,SW,12.7,-,N/A,,Partly Cloudy,220,2012-01-30 17:15:00
11:35 AM,46.4,33.8,62,29.85,10.0,SW,15.0,-,N/A,,Clear,220,2012-01-30 17:35:00
11:55 AM,48.2,35.6,62,29.84,10.0,SW,13.8,-,N/A,,Clear,230,2012-01-30 17:55:00
12:15 PM,48.2,35.6,62,29.83,10.0,SW,10.4,-,N/A,,Clear,220,2012-01-30 18:15:00
12:35 PM,50.0,35.6,58,29.82,10.0,SW,12.7,-,N/A,,Clear,220,2012-01-30 18:35:00
12:55 PM,51.8,35.6,54,29.81,10.0,SW,15.0,-,N/A,,Clear,230,2012-01-30 18:55:00
1:15 PM,53.6,35.6,51,29.79,10.0,SW,18.4,-,N/A,,Clear,230,2012-01-30 19:15:00
1:35 PM,53.6,35.6,51,29.79,10.0,SW,17.3,26.5,N/A,,Clear,230,2012-01-30 19:35:00
1:55 PM,53.6,35.6,51,29.79,10.0,SW,19.6,25.3,N/A,,Clear,230,2012-01-30 19:55:00
2:15 PM,53.6,35.6,51,29.79,10.0,WSW,15.0,-,N/A,,Clear,250,2012-01-30 20:15:00
2:35 PM,53.6,35.6,51,29.79,10.0,WSW,12.7,-,N/A,,Clear,240,2012-01-30 20:35:00
2:55 PM,55.4,37.4,51,29.79,10.0,WSW,9.2,-,N/A,,Clear,250,2012-01-30 20:55:00
3:15 PM,55.4,35.6,47,29.79,10.0,WSW,15.0,21.9,N/A,,Clear,240,2012-01-30 21:15:00
3:35 PM,53.6,37.4,54,29.80,10.0,WSW,6.9,-,N/A,,Clear,250,2012-01-30 21:35:00
3:55 PM,53.6,37.4,54,29.80,10.0,SW,9.2,-,N/A,,Clear,230,2012-01-30 21:55:00
4:15 PM,51.8,37.4,58,29.80,10.0,SW,6.9,-,N/A,,Clear,230,2012-01-30 22:15:00
4:35 PM,51.8,35.6,54,29.80,10.0,SW,9.2,-,N/A,,Clear,220,2012-01-30 22:35:00
4:55 PM,46.4,33.8,62,29.81,10.0,SW,10.4,-,N/A,,Clear,220,2012-01-30 22:55:00
5:15 PM,46.4,33.8,62,29.81,10.0,SSW,10.4,-,N/A,,Clear,210,2012-01-30 23:15:00
5:35 PM,44.6,32.0,61,29.81,10.0,SSW,8.1,-,N/A,,Clear,200,2012-01-30 23:35:00
5:55 PM,44.6,32.0,61,29.81,10.0,SSW,9.2,-,N/A,,Clear,200,2012-01-30 23:55:00
6:35 PM,42.8,32.0,66,29.81,10.0,SSW,9.2,-,N/A,,Clear,210,2012-01-31 00:35:00
6:55 PM,42.8,30.2,61,29.82,10.0,SSW,8.1,-,N/A,,Clear,210,2012-01-31 00:55:00
7:15 PM,44.6,32.0,61,29.82,10.0,SSW,6.9,-,N/A,,Clear,200,2012-01-31 01:15:00
7:35 PM,44.6,32.0,61,29.82,10.0,SSW,6.9,-,N/A,,Clear,200,2012-01-31 01:35:00
7:55 PM,42.8,33.8,70,29.82,10.0,South,8.1,-,N/A,,Clear,190,2012-01-31 01:55:00
8:15 PM,42.8,33.8,70,29.82,10.0,South,8.1,-,N/A,,Clear,190,2012-01-31 02:15:00
8:35 PM,39.2,32.0,75,29.82,10.0,South,12.7,-,N/A,,Clear,190,2012-01-31 02:35:00
8:55 PM,39.2,32.0,75,29.82,10.0,SSW,10.4,-,N/A,,Clear,200,2012-01-31 02:55:00
9:15 PM,39.2,32.0,75,29.83,10.0,SSW,10.4,-,N/A,,Clear,210,2012-01-31 03:15:00
9:35 PM,41.0,32.0,70,29.83,10.0,SW,10.4,-,N/A,,Clear,220,2012-01-31 03:35:00
9:55 PM,41.0,32.0,70,29.83,10.0,SW,11.5,-,N/A,,Clear,220,2012-01-31 03:55:00
10:15 PM,41.0,32.0,70,29.83,10.0,SW,10.4,-,N/A,,Clear,220,2012-01-31 04:15:00
10:35 PM,41.0,32.0,70,29.83,10.0,SW,10.4,-,N/A,,Clear,220,2012-01-31 04:35:00
10:55 PM,41.0,32.0,70,29.83,10.0,SSW,10.4,-,N/A,,Clear,210,2012-01-31 04:55:00
11:15 PM,42.8,32.0,66,29.83,10.0,SSW,12.7,-,N/A,,Clear,210,2012-01-31 05:15:00
11:55 PM,42.8,33.8,70,29.84,10.0,SW,12.7,-,N/A,,Clear,220,2012-01-31 05:55:00